KOCQ

Details ICAO KOCQ
Name J Douglas Bake Mem
Region United States
Timezone America/Chicago (UTC-5.0)
Plans Departing 1
Arriving 2
Stats Elevation 604 ft / 184 m (AMSL)
Location 44.874423° -87.909824°
Runways 2
Magnetic Variation 4.248° W
Sunrise 2018-05-25 10:14:47 UTC / 2018-05-25 05:14:47 Local
Sunset 2018-05-26 01:25:17 UTC / 2018-05-25 20:25:17 Local
Advertisement - Login to hide

Runways

ID Width Length Bearing (true) Bearing (mag) Surface Threshold Offset Overrun Length
04 150 ft / 46 m 1,845 ft / 562 m 39.84° 44.09° Grass 0 ft / 0 m 500 ft / 152 m
11 75 ft / 23 m 3,192 ft / 973 m 109.55° 113.80° Asphalt 0 ft / 0 m 0 ft / 0 m
22 150 ft / 46 m 1,845 ft / 562 m 219.84° 224.09° Grass 0 ft / 0 m 760 ft / 232 m
29 75 ft / 23 m 3,192 ft / 973 m 289.56° 293.81° Asphalt 0 ft / 0 m 0 ft / 0 m

Map

Weather


0- 5 10 15 20 25 30 35+ Temperature / ° C

Clouds and Precipitation
Forecast for 2018-05-26 00:00 UTC. Updated 4 hours ago

Ground ~20,000 ft ~40,000 ft Winds

METAR

KOCQ 260235Z AUTO 00000KT 10SM SCT050 23/19 A2970 RMK AO1 T02320187

TAF

Not found

Frequencies

Unicom 122.80 MHz CTAF/UNICOM
Approach 119.50 MHz GREEN BAY APP/DEP
Warning: Do not use this data for real-world aviation or navigation. No guarantee of current accuracy is given.